Edinburgh Airport, United Kingdom

2:39 PM BST on September 20, 2017 (GMT +0100)
Edinburgh Airport

Weather History for EGPH - January, 2013

Change the Weather History Date:

Thursday, January 10, 2013

  Actual Average Record
Temperature  
Mean Temperature 36 °F -  
Max Temperature 41 °F 43 °F 57 °F (1998)
Min Temperature 30 °F 33 °F 23 °F (1999)
Degree Days  
Heating Degree Days 30    
Moisture  
Dew Point 37 °F    
Average Humidity 99    
Maximum Humidity 100    
Minimum Humidity 93    
Precipitation  
Precipitation 0.00 in 0.07 in - ()
Sea Level Pressure  
Sea Level Pressure 29.99 in    
Wind  
Wind Speed 4 mph ()    
Max Wind Speed 8 mph    
Max Gust Speed -    
Visibility 2.9 miles    
Events Fog    
Averages and records for this station are not official NWS values.
T = Trace of Precipitation, MM = Missing Value Source: Averaged Metar Reports

Daily Weather History Graph

Daily Weather History Graph

Search for Another Location

Airport or City:

Trip Planner

Search our weather history database for the weather conditions in past years. The results will help you decide how hot, cold, wet, or windy it might be!

Date:

Astronomy

Jan. 10, 2013 Rise Set
Actual Time 8:39 AM GMT 4:03 PM GMT
Civil Twilight 7:53 AM GMT 4:48 PM GMT
Nautical Twilight 7:05 AM GMT 5:36 PM GMT
Astronomical Twilight 6:21 AM GMT 6:21 PM GMT
Moon 7:05 AM GMT (1/10) 2:55 PM GMT (1/10)
Length of Visible Light 8h 54m
Length of Day
7h 24m
Waning Crescent, 3% of the Moon is Illuminated
Jan 10
Waning Crescent
Jan 11
New
Jan 18
First Quarter
Jan 27
Full
Feb 3
Last Quarter

Hourly Weather History & Observations

Time (GMT) Temp. Windchill Dew Point Humidity Pressure Visibility Wind Dir Wind Speed Gust Speed Precip Events Conditions
12:20 AM 37.4 °F 32.8 °F 35.6 °F 93% 30.04 in - WSW 5.8 mph - N/A   Clear
12:50 AM 35.6 °F 29.9 °F 35.6 °F 100% 30.04 in - WSW 6.9 mph - N/A   Clear
1:20 AM 35.6 °F 29.2 °F 35.6 °F 100% 30.04 in - WSW 8.1 mph - N/A   Clear
1:50 AM 35.6 °F 31.7 °F 33.8 °F 93% 30.04 in - WSW 4.6 mph - N/A   Clear
2:20 AM 35.6 °F 29.2 °F 35.6 °F 100% 30.01 in - West 8.1 mph - N/A   Clear
2:50 AM 35.6 °F 29.9 °F 33.8 °F 93% 30.01 in 6.2 mi West 6.9 mph - N/A   Unknown
3:20 AM 35.6 °F 30.7 °F 33.8 °F 93% 30.01 in 6.2 mi WSW 5.8 mph - N/A   Unknown
3:50 AM 33.8 °F 29.6 °F 33.8 °F 100% 30.01 in 6.2 mi WSW 4.6 mph - N/A   Unknown
4:20 AM 33.8 °F 28.6 °F 33.8 °F 100% 30.01 in - West 5.8 mph - N/A   Clear
4:50 AM 33.8 °F 28.6 °F 33.8 °F 100% 30.01 in - West 5.8 mph - N/A   Clear
5:20 AM 30.2 °F 25.4 °F 30.2 °F 100% 30.01 in 5.6 mi WSW 4.6 mph - N/A   Unknown
5:50 AM 33.8 °F 29.6 °F 33.8 °F 100% 30.01 in 5.6 mi WSW 4.6 mph - N/A   Mostly Cloudy
6:20 AM 33.8 °F 28.6 °F 33.8 °F 100% 30.01 in 5.6 mi West 5.8 mph - N/A   Mostly Cloudy
6:50 AM 35.6 °F 31.7 °F 35.6 °F 100% 30.01 in 6.2 mi WSW 4.6 mph - N/A   Mostly Cloudy
7:20 AM 35.6 °F 30.7 °F 35.6 °F 100% 29.98 in 6.2 mi WSW 5.8 mph - N/A   Mostly Cloudy
7:50 AM 35.6 °F - 35.6 °F 100% 29.98 in 6.2 mi Variable 2.3 mph - N/A Fog Mostly Cloudy
8:20 AM 37.4 °F 33.8 °F 35.6 °F 93% 29.98 in 6.2 mi West 4.6 mph - N/A Fog Mostly Cloudy
8:50 AM 37.4 °F - 35.6 °F 93% 30.01 in 6.2 mi NW 2.3 mph - N/A Fog Mostly Cloudy
9:20 AM 37.4 °F 34.9 °F 35.6 °F 93% 30.01 in 3.1 mi WSW 3.5 mph - N/A   Haze
9:50 AM 37.4 °F - 37.4 °F 100% 30.01 in 2.5 mi Variable 2.3 mph - N/A   Mostly Cloudy
10:20 AM 37.4 °F - 37.4 °F 100% 30.01 in 1.9 mi Variable 2.3 mph - N/A   Mostly Cloudy
10:50 AM 37.4 °F - 37.4 °F 100% 30.01 in 1.6 mi Variable 2.3 mph - N/A   Light Drizzle
11:20 AM 37.4 °F - 37.4 °F 100% 30.01 in 2.2 mi Variable 2.3 mph - N/A   Mostly Cloudy
11:50 AM 39.2 °F - 37.4 °F 93% 29.98 in 1.9 mi Variable 2.3 mph - N/A   Light Drizzle
12:20 PM 39.2 °F 37.0 °F 39.2 °F 100% 29.98 in 1.3 mi Variable 3.5 mph - N/A   Overcast
12:50 PM 39.2 °F 37.0 °F 39.2 °F 100% 29.98 in 1.2 mi West 3.5 mph - N/A   Overcast
1:20 PM 39.2 °F 37.0 °F 39.2 °F 100% 29.95 in 1.2 mi West 3.5 mph - N/A   Overcast
1:50 PM 39.2 °F 37.0 °F 39.2 °F 100% 29.95 in 1.2 mi Variable 3.5 mph - N/A   Light Drizzle
2:20 PM 39.2 °F - 39.2 °F 100% 29.95 in 1.6 mi NW 2.3 mph - N/A   Light Drizzle
2:50 PM 39.2 °F - 39.2 °F 100% 29.95 in - Variable 2.3 mph - N/A   Mostly Cloudy
3:20 PM 39.2 °F 37.0 °F 39.2 °F 100% 29.95 in 1.6 mi Variable 3.5 mph - N/A   Overcast
3:50 PM 39.2 °F - 39.2 °F 100% 29.95 in 1.1 mi Calm Calm - N/A   Light Drizzle
4:20 PM 39.2 °F - 39.2 °F 100% 29.95 in 1.0 mi Calm Calm - N/A   Light Drizzle
4:50 PM 39.2 °F - 39.2 °F 100% 29.95 in 0.9 mi Calm Calm - N/A   Light Drizzle
5:20 PM 39.2 °F - 39.2 °F 100% 29.95 in 0.7 mi West 2.3 mph - N/A   Light Drizzle
5:50 PM 39.2 °F 35.9 °F 39.2 °F 100% 29.95 in 0.6 mi WSW 4.6 mph - N/A   Drizzle
6:20 PM 41.0 °F 37.1 °F 41.0 °F 100% 29.95 in 1.0 mi WSW 5.8 mph - N/A   Drizzle
6:50 PM 41.0 °F 39.0 °F 41.0 °F 100% 29.95 in 1.6 mi WSW 3.5 mph - N/A   Drizzle
7:20 PM 41.0 °F - 41.0 °F 100% 29.98 in 1.4 mi Calm Calm - N/A   Light Drizzle
7:50 PM 39.2 °F 37.0 °F 39.2 °F 100% 29.98 in 2.5 mi West 3.5 mph - N/A   Overcast
8:20 PM 39.2 °F 37.0 °F 39.2 °F 100% 29.98 in 1.9 mi West 3.5 mph - N/A   Overcast
8:50 PM 39.2 °F - 39.2 °F 100% 29.98 in - WNW 2.3 mph - N/A   Overcast
9:20 PM 39.2 °F - 39.2 °F 100% 29.98 in 2.5 mi Calm Calm - N/A   Overcast
9:50 PM 39.2 °F - 39.2 °F 100% 29.98 in 2.8 mi Calm Calm - N/A   Overcast
10:20 PM 39.2 °F 37.0 °F 39.2 °F 100% 29.98 in 2.2 mi WSW 3.5 mph - N/A   Overcast
10:50 PM 39.2 °F - 39.2 °F 100% 29.98 in - WSW 2.3 mph - N/A   Overcast
11:20 PM 39.2 °F - 39.2 °F 100% 30.01 in 1.9 mi Calm Calm - N/A   Overcast
11:50 PM 39.2 °F - 39.2 °F 100% 30.01 in 1.7 mi WNW 2.3 mph - N/A   Overcast